Onweer radar Meer informatie blitzortung!


Regen radar Meer informatie rain snow radar


Bezoek onze andere website:

Template documentation
and downloads

And another site



15 daagse weersverwachting An Muileann gCearr (IE)

  • Overzicht
  • Per uur
  • 15 dagen
  • Extra
  • Vergelijk
  • Kaarten
  • Dagkaart
  • Meer »
  • Info
  • Statistieken
  • Directe link
    Temp 6h Neerslag Wind  
 05:48     21:25    Daglengte: 15:37 Morgen
01:00
13°
 
4
07:00
11°
 
4
13:00
16°
 
5
19:00
17°
 
4
 05:49     21:23    Daglengte: 15:34 Maandag 02 Aug
01:00
12°
 
3
07:00
12°
 
2
13:00
16°
 
2
19:00
17°
 
2
 05:51     21:21    Daglengte: 15:30 Dinsdag 03 Aug
01:00
13°
 
2
07:00
12°
0.5 mm
2
13:00
18°
 
3
19:00
18°
 
3
Locatie info
Region: Leinster
Latitude: 53.5333°N
Longitude: -7.3500°E
96 masl
Temp/Neerslag /Baro Onweer/Dauwpunt
    Temp Baro 1h Neerslag Dauwpunt Wind UV Bewolking  
 05:46     21:26    Daglengte: 15:40 Vandaag
23:00
14°
1011.4 hPa
49%
10.7°
4
Windvlaag: -3.8 m/s
58%
 05:48     21:25    Daglengte: 15:37 Morgen
00:00
14°
1011.7 hPa
68%
9.9°
4
Windvlaag: -3.4 m/s
64%
01:00
13°
1011.9 hPa
18%
9.2°
4
Windvlaag: -3.4 m/s
61%
02:00
13°
1012.0 hPa
17%
8.8°
3
Windvlaag: -3 m/s
17%
03:00
12°
1012.1 hPa
15%
8.4°
3
Windvlaag: -3.2 m/s
20%
04:00
12°
1012.2 hPa
14%
8.2°
3
Windvlaag: -3.3 m/s
17%
05:00
12°
1012.2 hPa
14%
7.9°
3
Windvlaag: -3.1 m/s
38%
06:00
11°
1012.4 hPa
14%
7.5°
3
Windvlaag: -2.5 m/s
21%
07:00
11°
1012.9 hPa
14%
7.1°
4
Windvlaag: -1.7 m/s
17%
08:00
12°
1013.1 hPa
14%
7.3°
4
Windvlaag: -1.7 m/s
13%
09:00
13°
1013.4 hPa
14%
7.8°
4
Windvlaag: -3.3 m/s
16%
10:00
14°
1013.5 hPa
14%
8.1°
5
Windvlaag: -4.3 m/s
15%
11:00
15°
1013.5 hPa
14%
8.6°
5
Windvlaag: -5.4 m/s
51%
12:00
15°
1013.7 hPa
14%
8.8°
5
Windvlaag: -5.9 m/s
63%
13:00
16°
1013.7 hPa
14%
8.7°
5
Windvlaag: -6 m/s
21%
14:00
17°
1013.9 hPa
14%
9.0°
5
Windvlaag: -6.2 m/s
46%
15:00
17°
1014.1 hPa
14%
8.9°
5
Windvlaag: -6.3 m/s
44%
16:00
17°
1014.1 hPa
14%
8.6°
5
Windvlaag: -6.4 m/s
43%
17:00
17°
1014.0 hPa
14%
9.1°
5
Windvlaag: -6 m/s
23%
18:00
17°
1014.2 hPa
14%
9.3°
4
Windvlaag: -5.7 m/s
52%
19:00
17°
1014.3 hPa
14%
9.2°
4
Windvlaag: -5.4 m/s
39%
20:00
16°
1014.6 hPa
14%
9.1°
4
Windvlaag: -5.3 m/s
41%
21:00
15°
1015.0 hPa
14%
8.6°
4
Windvlaag: -4.6 m/s
36%
22:00
15°
1015.7 hPa
14%
7.9°
4
Windvlaag: -3.1 m/s
20%
23:00
14°
1015.9 hPa
14%
7.2°
3
Windvlaag: -3 m/s
18%
 05:49     21:23    Daglengte: 15:34 Maandag 02 Aug
00:00
13°
1016.0 hPa
15%
7.0°
4
Windvlaag: -2.7 m/s
53%
01:00
12°
1016.1 hPa
16%
6.8°
3
Windvlaag: -3.5 m/s
33%
02:00
12°
1016.2 hPa
18%
6.5°
3
Windvlaag: -2.8 m/s
54%
03:00
11°
1016.0 hPa
16%
6.7°
2
Windvlaag: -2.1 m/s
81%
04:00
11°
1015.9 hPa
14%
6.7°
2
Windvlaag: -0.9 m/s
80%
05:00
11°
1015.8 hPa
14%
6.5°
2
Windvlaag: 0.1 m/s
80%
06:00
11°
1015.8 hPa
14%
6.7°
2
Windvlaag: 0.9 m/s
79%
07:00
12°
1015.8 hPa
16%
7.1°
2
Windvlaag: 0.6 m/s
83%
08:00
12°
1015.8 hPa
14%
6.6°
3
Windvlaag: -0.3 m/s
73%
09:00
13°
1015.9 hPa
16%
6.5°
3
Windvlaag: -1 m/s
79%
10:00
13°
1015.8 hPa
15%
7.2°
3
Windvlaag: -1.3 m/s
27%
11:00
14°
1015.8 hPa
14%
7.7°
3
Windvlaag: -0.8 m/s
27%
12:00
15°
1015.6 hPa
14%
8.3°
2
Windvlaag: -0.6 m/s
26%
13:00
16°
1015.6 hPa
14%
8.8°
2
Windvlaag: 0.7 m/s
24%
14:00
16°
1015.5 hPa
14%
9.1°
2
Windvlaag: 1.2 m/s
65%
15:00
17°
1015.3 hPa
14%
8.9°
2
Windvlaag: 1.3 m/s
60%
16:00
18°
1014.5 hPa
21%
11.6°
2
Windvlaag: 2.3 m/s
59%
17:00
18°
1014.2 hPa
21%
12.1°
3
Windvlaag: 2.3 m/s
43%
18:00
17°
1013.9 hPa
21%
13.0°
2
Windvlaag: 1.8 m/s
68%
19:00
17°
1013.6 hPa
21%
14.4°
2
Windvlaag: 2.4 m/s
21%
20:00
17°
1013.6 hPa
21%
14.8°
2
Windvlaag: 2.6 m/s
36%
21:00
16°
1013.7 hPa
21%
13.9°
2
Windvlaag: 2.7 m/s
51%
22:00
15°
1014.1 hPa
21%
13.3°
2
Windvlaag: 2.6 m/s
69%
23:00
14°
1014.1 hPa
21%
13.1°
2
Windvlaag: 2.9 m/s
63%
 05:51     21:21    Daglengte: 15:30 Dinsdag 03 Aug
00:00
14°
1014.2 hPa
21%
13.0°
2
Windvlaag: 2.9 m/s
86%
01:00
13°
1014.0 hPa
21%
12.7°
2
Windvlaag: 3.1 m/s
78%
02:00
13°
1013.9 hPa
24%
12.4°
2
Windvlaag: 3.8 m/s
87%
03:00
12°
1013.6 hPa
27%
12.3°
2
Windvlaag: 2 m/s
88%
04:00
13°
1013.4 hPa
81%
12.5°
2
Windvlaag: 1.2 m/s
97%
05:00
12°
1013.1 hPa
90%
12.4°
2
Windvlaag: 0.5 m/s
89%
06:00
12°
1013.0 hPa 0.5 mm
85%
12.0°
2
Windvlaag: 2.2 m/s
77%
07:00
12°
1013.2 hPa
35%
11.9°
2
Windvlaag: 2.3 m/s
83%
08:00
12°
1013.3 hPa
32%
12.3°
2
Windvlaag: 2.4 m/s
99%
09:00
13°
1013.3 hPa
23%
12.7°
2
Windvlaag: 3 m/s
99%
10:00
14°
1013.4 hPa
21%
12.9°
2
Windvlaag: 4 m/s
99%
11:00
16°
1013.3 hPa
30%
12.7°
3
Windvlaag: 4.6 m/s
94%
12:00
17°
1013.0 hPa
26%
12.1°
3
Windvlaag: 4.5 m/s
86%
13:00
18°
1012.5 hPa
26%
12.0°
3
Windvlaag: 4.1 m/s
85%
14:00
19°
1012.0 hPa
25%
12.7°
3
Windvlaag: 3.4 m/s
79%
15:00
19°
1011.8 hPa
24%
13.1°
3
Windvlaag: 3.3 m/s
78%
16:00
20°
1011.6 hPa
30%
13.1°
3
Windvlaag: 3.4 m/s
92%
17:00
20°
1011.2 hPa
34%
12.5°
3
Windvlaag: 3.4 m/s
69%
18:00
19°
1011.2 hPa
80%
11.3°
3
Windvlaag: 3.4 m/s
65%
19:00
18°
1011.4 hPa
91%
10.4°
3
Windvlaag: 3.6 m/s
56%
20:00
18°
1011.4 hPa 1.4 mm
100%
11.9°
2
Windvlaag: 3.3 m/s
68%
21:00
15°
1011.7 hPa 1.4 mm
100%
12.4°
2
Windvlaag: 3.3 m/s
74%
22:00
14°
1012.1 hPa 1.4 mm
100%
12.5°
2
Windvlaag: 3.8 m/s
75%
Temp/Neerslag /Baro Onweer/Dauwpunt
    Temp Baro Neerslag Dauwpunt Wind Bewolking  
 05:48     21:25    Daglengte: 15:37 Morgen
01:00
13°
1011.9 hPa   9.2°
4
61%
04:00
12°
1012.2 hPa   8.2°
3
17%
07:00
11°
1012.9 hPa   7.1°
4
17%
10:00
14°
1013.5 hPa   8.1°
5
15%
13:00
16°
1013.7 hPa   8.7°
5
21%
16:00
17°
1014.1 hPa   8.6°
5
43%
19:00
17°
1014.3 hPa   9.2°
4
39%
22:00
15°
1015.7 hPa   7.9°
4
20%
 05:49     21:23    Daglengte: 15:34 Maandag 02 Aug
01:00
12°
1016.1 hPa   6.8°
3
33%
04:00
11°
1015.9 hPa   6.7°
2
80%
07:00
12°
1015.8 hPa   7.1°
2
83%
10:00
13°
1015.8 hPa   7.2°
3
27%
13:00
16°
1015.6 hPa   8.8°
2
24%
16:00
18°
1014.5 hPa   11.6°
2
59%
19:00
17°
1013.6 hPa   14.4°
2
21%
22:00
15°
1014.1 hPa   13.3°
2
69%
 05:51     21:21    Daglengte: 15:30 Dinsdag 03 Aug
01:00
13°
1014.0 hPa   12.7°
2
78%
04:00
13°
1013.4 hPa   12.5°
2
97%
07:00
12°
1013.2 hPa 0.5 mm 11.9°
2
83%
10:00
14°
1013.4 hPa   12.9°
2
99%
13:00
18°
1012.5 hPa   12.0°
3
85%
16:00
20°
1011.6 hPa   13.1°
3
92%
19:00
18°
1011.4 hPa   10.4°
3
56%
22:00
14°
1012.1 hPa 4.1 mm 12.5°
2
75%
 05:53     21:19    Daglengte: 15:26 Woensdag 04 Aug
01:00
12°
1012.2 hPa 4.1 mm 10.8°
1
82%
04:00
10°
Voelt als: 8.7°
1013.4 hPa 3.0 mm 8.9°
2
0%
07:00
10°
1013.5 hPa 3.0 mm 9.8°
2
0%
10:00
16°
1012.8 hPa 3.0 mm 12.6°
3
1%
13:00
18°
1011.3 hPa 3.6 mm 13.2°
4
1%
16:00
19°
1009.0 hPa 4.3 mm 14.3°
4
1%
19:00
15°
1007.4 hPa 6.0 mm 13.3°
3
1%
22:00
13°
1005.5 hPa 6.8 mm 12.1°
4
1%
 05:54     21:17    Daglengte: 15:23 Donderdag 05 Aug
01:00
13°
1001.8 hPa 7.3 mm 12.1°
5
1%
04:00
13°
997.1 hPa 9.4 mm 12.2°
6
1%
07:00
13°
993.9 hPa 11.0 mm 12.9°
5
1%
10:00
16°
992.1 hPa 11.2 mm 13.6°
4
1%
13:00
18°
991.9 hPa 12.5 mm 14.6°
3
1%
16:00
19°
992.4 hPa 16.5 mm 15.1°
1
1%
19:00
17°
994.0 hPa 19.6 mm 15.5°
2
1%
22:00
14°
996.3 hPa 21.8 mm 13.4°
3
1%
 05:56     21:15    Daglengte: 15:19 Vrijdag 06 Aug
01:00
13°
997.9 hPa 22.5 mm 12.9°
4
1%
04:00
14°
998.8 hPa 22.9 mm 13.2°
6
1%
07:00
13°
1000.1 hPa 23.1 mm 11.7°
6
1%
10:00
15°
1001.2 hPa 23.1 mm 11.2°
7
1%
13:00
18°
1001.7 hPa 23.2 mm 11.0°
7
1%
16:00
19°
1001.8 hPa 23.5 mm 10.5°
7
1%
19:00
15°
1003.2 hPa 24.6 mm 12.4°
6
1%
22:00
11°
1004.5 hPa 24.6 mm 9.9°
3
0%
 05:58     21:13    Daglengte: 15:15 Zaterdag 07 Aug
01:00
Voelt als: 7.6°
1004.4 hPa 24.6 mm 8.3°
2
0%
04:00
Voelt als: 7.3°
1003.6 hPa 24.6 mm 7.4°
2
1%
07:00
Voelt als: 8.9°
1002.9 hPa 24.6 mm 8.4°
2
1%
10:00
14°
1002.2 hPa 24.6 mm 10.4°
3
1%
13:00
16°
1000.7 hPa 24.6 mm 10.6°
3
1%
16:00
13°
999.6 hPa 26.2 mm 12.5°
2
1%
19:00
12°
998.2 hPa 28.6 mm 11.7°
4
1%
22:00
12°
997.1 hPa   11.4°
6
1%
 06:00     21:11    Daglengte: 15:11 Zondag 08 Aug
01:00
12°
996.6 hPa 70.5 mm 11.0°
6
1%
07:00
12°
998.7 hPa 77.4 mm 11.1°
4
1%
13:00
19°
1002.2 hPa 79.0 mm 11.5°
4
1%
19:00
17°
1008.3 hPa 80.2 mm 13.3°
7
1%
 06:01     21:09    Daglengte: 15:08 Maandag 09 Aug
01:00
13°
1014.6 hPa 80.9 mm 8.8°
5
1%
07:00
10°
1016.5 hPa 80.9 mm 9.9°
3
1%
13:00
14°
1018.1 hPa 81.2 mm 13.3°
4
1%
19:00
17°
1018.9 hPa 81.7 mm 15.3°
5
1%
 06:03     21:07    Daglengte: 15:04 Dinsdag 10 Aug
01:00
15°
1020.5 hPa 81.7 mm 14.0°
4
1%
07:00
15°
1019.7 hPa 81.7 mm 13.9°
4
1%
13:00
19°
1019.4 hPa 82.0 mm 15.1°
6
1%
19:00
17°
1018.5 hPa 1.2 mm 13.5°
3
68%
 06:05     21:05    Daglengte: 15:00 Woensdag 11 Aug
01:00
12°
1019.5 hPa 0.2 mm 10.9°
2
58%
07:00
11°
1019.3 hPa 0.1 mm 10.7°
2
67%
13:00
18°
1019.8 hPa 0.4 mm 12.8°
3
76%
19:00
17°
1019.6 hPa 0.8 mm 13.4°
2
76%
 06:06     21:03    Daglengte: 14:57 Donderdag 12 Aug
01:00
13°
1019.7 hPa 0.4 mm 11.2°
2
74%
07:00
12°
1018.3 hPa 0.2 mm 11.3°
2
72%
13:00
18°
1018.1 hPa 0.8 mm 13.5°
3
77%
19:00
18°
1017.6 hPa 0.8 mm 13.7°
3
77%
 06:08     21:01    Daglengte: 14:53 Vrijdag 13 Aug
01:00
13°
1017.8 hPa 0.4 mm 11.7°
2
64%
07:00
12°
1017.2 hPa 0.2 mm 11.3°
2
65%
13:00
18°
1017.8 hPa 0.6 mm 13.5°
3
70%
19:00
18°
1017.7 hPa 0.9 mm 13.9°
3
69%
 06:10     20:59    Daglengte: 14:49 Zaterdag 14 Aug
01:00
13°
1018.6 hPa 0.2 mm 11.9°
2
62%
07:00
12°
1018.4 hPa 0.2 mm 11.1°
2
63%
13:00
18°
1018.4 hPa 0.4 mm 13.7°
3
66%
19:00
18°
1017.8 hPa 1.5 mm 13.8°
2
70%
 06:12     20:57    Daglengte: 14:45 Zondag 15 Aug
01:00
12°
1018.2 hPa 0.6 mm 11.4°
2
63%
07:00
12°
1017.7 hPa 0.5 mm 11.0°
2
63%
13:00
18°
1017.9 hPa 0.6 mm 13.0°
3
73%
19:00
18°
1017.0 hPa 0.9 mm 13.7°
3
68%
  CAPE Lifted Index Hail Supercell Tornado SRH 3km CL BTM PRES CL TOP PRES Swiss DWD icon SMHI TS
 05:46     21:26    Daglengte: 15:40 Vandaag
23:00 0 J/kg 5.5 K 0 % 0 % 0 % 0 m²/s² 0 0 9.22 3
 05:48     21:25    Daglengte: 15:37 Morgen
00:00 0 J/kg 6.6 K 0 % 0 % 0 % 0 m²/s² 0 0 10.53 3
01:00 0 J/kg 8.3 K 0 % 0 % 0 % 0 m²/s² 0 0 12.44 2
02:00 0 J/kg 10.0 K 0 % 0 % 0 % 0 m²/s² 0 0 14.59 2
03:00 0 J/kg 10.4 K 0 % 0 % 0 % 0 m²/s² 0 0 15.77 2
04:00 0 J/kg 10.8 K 0 % 0 % 0 % 0 m²/s² 0 0 17.52 1
05:00 0 J/kg 10.5 K 0 % 0 % 0 % 0 m²/s² 0 0 17.91 2
06:00 0 J/kg 10.6 K 0 % 0 % 0 % 0 m²/s² 0 0 17.74 2
07:00 0 J/kg 10.2 K 0 % 0 % 0 % 0 m²/s² 0 0 16.32 1
08:00 0 J/kg 9.8 K 0 % 0 % 0 % 0 m²/s² 0 0 15.59 0
09:00 12 J/kg 8.9 K 0 % 0 % 0 % 0 m²/s² 0 0 14.87 1
10:00 12 J/kg 8.4 K 0 % 0 % 0 % 0 m²/s² 0 0 14.52 2
11:00 10 J/kg 7.7 K 0 % 0 % 0 % 0 m²/s² 0 0 13.82 2
12:00 17 J/kg 7.2 K 0 % 0 % 0 % 0 m²/s² 0 0 13.14 3
13:00 24 J/kg 6.5 K 0 % 0 % 0 % 0 m²/s² 0 0 12.29 2
14:00 31 J/kg 5.8 K 0 % 0 % 0 % 0 m²/s² 0 0 11.41 3
15:00 50 J/kg 5.2 K 0 % 0 % 0 % 0 m²/s² 0 0 10.96 2
16:00 54 J/kg 5.0 K 0 % 0 % 0 % 0 m²/s² 0 0 11.45 2
17:00 50 J/kg 4.7 K 0 % 0 % 0 % 0 m²/s² 0 0 11.36 2
18:00 60 J/kg 4.3 K 0 % 0 % 0 % 0 m²/s² 0 0 10.57 2
19:00 66 J/kg 4.3 K 0 % 0 % 0 % 0 m²/s² 0 0 10.24 3
20:00 75 J/kg 4.3 K 0 % 0 % 0 % 0 m²/s² 0 0 9.91 3
21:00 50 J/kg 4.9 K 0 % 0 % 0 % 0 m²/s² 0 0 10.21 3
22:00 9 J/kg 5.8 K 0 % 0 % 0 % 0 m²/s² 0 0 11.41 2
23:00 0 J/kg 6.7 K 0 % 0 % 0 % 0 m²/s² 0 0 12.31 2
 05:49     21:23    Daglengte: 15:34 Maandag 02 Aug
00:00 0 J/kg 6.9 K 0 % 0 % 0 % 0 m²/s² 0 0 12.33 3
01:00 0 J/kg 7.0 K 0 % 0 % 0 % 0 m²/s² 0 0 12.43 3
02:00 0 J/kg 6.9 K 0 % 0 % 0 % 0 m²/s² 0 0 12.33 3
03:00 0 J/kg 7.1 K 0 % 0 % 0 % 0 m²/s² 0 0 12.53 3
04:00 0 J/kg 8.2 K 0 % 0 % 0 % 0 m²/s² 0 0 13.6 3
05:00 0 J/kg 8.5 K 0 % 0 % 0 % 0 m²/s² 0 0 13.78 3
06:00 0 J/kg 8.3 K 0 % 0 % 0 % 0 m²/s² 0 0 13.04 3
07:00 0 J/kg 7.6 K 0 % 0 % 0 % 0 m²/s² 0 0 11.98 3
08:00 0 J/kg 5.7 K 0 % 0 % 0 % 0 m²/s² 0 0 9.66 3
09:00 0 J/kg 5.3 K 0 % 0 % 0 % 0 m²/s² 0 0 8.57 3
10:00 0 J/kg 4.9 K 0 % 0 % 0 % 0 m²/s² 0 0 7.39 2
11:00 20 J/kg 4.3 K 0 % 0 % 0 % 0 m²/s² 0 0 6.31 2
12:00 44 J/kg 3.4 K 0 % 0 % 0 % 0 m²/s² 0 0 4.93 2
13:00 71 J/kg 2.6 K 0 % 0 % 0 % 0 m²/s² 0 0 3.86 2
14:00 106 J/kg 2.2 K 0 % 0 % 0 % 0 m²/s² 0 0 3.61 3
15:00 99 J/kg 2.6 K 0 % 0 % 0 % 0 m²/s² 0 0 4.67 3
16:00 120 J/kg 2.1 K 0 % 0 % 0 % 0 m²/s² 0 0 4.44 1
17:00 168 J/kg 1.5 K 0 % 0 % 0 % 0 m²/s² 0 0 3.78 2
18:00 161 J/kg 1.7 K 0 % 0 % 0 % 0 m²/s² 0 0 3.98 3
19:00 90 J/kg 2.2 K 0 % 0 % 0 % 0 m²/s² 0 0 4.48 1
20:00 30 J/kg 3.1 K 0 % 0 % 0 % 0 m²/s² 0 0 5.77 2
21:00 17 J/kg 3.8 K 0 % 0 % 0 % 0 m²/s² 0 0 6.71 2
22:00 6 J/kg 4.2 K 0 % 0 % 0 % 0 m²/s² 0 0 7.44 3
23:00 17 J/kg 4.2 K 0 % 0 % 0 % 0 m²/s² 0 0 7.44 2
 05:51     21:21    Daglengte: 15:30 Dinsdag 03 Aug
00:00 20 J/kg 4.3 K 0 % 0 % 0 % 0 m²/s² 0 0 7.72 3
01:00 4 J/kg 4.4 K 0 % 0 % 0 % 0 m²/s² 0 0 7.73 3
02:00 0 J/kg 4.5 K 0 % 0 % 0 % 0 m²/s² 0 0 7.56 3
03:00 6 J/kg 5.3 K 0 % 0 % 0 % 0 m²/s² 0 0 8.12 3
04:00 3 J/kg 5.0 K 0 % 0 % 0 % 0 m²/s² 0 0 7.58 3
05:00 0 J/kg 4.6 K 0 % 0 % 0 % 0 m²/s² 0 0 6.82 3
06:00 0 J/kg 4.8 K 0 % 0 % 0 % 0 m²/s² 0 0 6.9 3
07:00 1 J/kg 5.1 K 0 % 0 % 0 % 0 m²/s² 0 0 6.99 3
08:00 2 J/kg 4.7 K 0 % 0 % 0 % 0 m²/s² 0 0 6.86 3
09:00 2 J/kg 4.5 K 0 % 0 % 0 % 0 m²/s² 0 0 6.48 3
10:00 26 J/kg 3.8 K 0 % 0 % 0 % 0 m²/s² 0 0 5.63 3
11:00 63 J/kg 3.2 K 0 % 0 % 0 % 0 m²/s² 0 0 5.09 3
12:00 66 J/kg 2.9 K 0 % 0 % 0 % 0 m²/s² 0 0 4.67 3
13:00 75 J/kg 2.2 K 0 % 0 % 0 % 0 m²/s² 0 0 4.12 3
14:00 84 J/kg 1.4 K 0 % 0 % 0 % 0 m²/s² 0 0 3.17 3
15:00 95 J/kg 0.9 K 0 % 0 % 0 % 0 m²/s² 0 0 2.79 3
16:00 73 J/kg 1.2 K 0 % 0 % 0 % 0 m²/s² 0 0 3.24 3
17:00 46 J/kg 1.3 K 0 % 0 % 0 % 0 m²/s² 0 0 3.25 3
18:00 45 J/kg 1.3 K 0 % 0 % 0 % 0 m²/s² 0 0 3.25 3
19:00 23 J/kg 1.5 K 0 % 0 % 0 % 0 m²/s² 0 0 3.72 3
20:00 45 J/kg 0.8 K 0 % 0 % 0 % 0 m²/s² 0 0 3.32
21:00 97 J/kg 0.2 K 0 % 0 % 0 % 0 m²/s² 0 0 2.93
22:00 142 J/kg 0.0 K 0 % 0 % 0 % 0 m²/s² 0 0 2.97
Temp Baro Wind Neerslag
  EWN Forecast EWN WRFDA DWD ICON FMI HIRLAM MET Norway GFS
 05:48     21:25    Daglengte: 15:37 Morgen
01:00 13.1° 1011.9 hPa 3.6 m/s 0.0 mm 6.6° 1010.6 hPa 2.8 m/s 1.9 mm 13.0° 1012.2 hPa 3.4 m/s -1.9 mm 14.0° 1011.8 hPa 3.7 m/s 0.0 mm 8.8° 1012.3 hPa 2.4 m/s
04:00 11.8° 1012.2 hPa 3.3 m/s 0.0 mm 5.1° 1010.3 hPa 2.9 m/s 1.9 mm 11.2° 1012.6 hPa 2.2 m/s 0.0 mm 13.3° 1011.5 hPa 3.5 m/s 0.0 mm 7.4° 1012.5 hPa 2.2 m/s
07:00 11.4° 1012.9 hPa 3.7 m/s 0.0 mm 9.0° 1011.1 hPa 4.2 m/s 1.9 mm 10.9° 1013.2 hPa 2.6 m/s 0.0 mm 12.6° 1012.3 hPa 4.1 m/s 0.0 mm 8.2° 1013.2 hPa 2.5 m/s
10:00 13.8° 1013.5 hPa 4.8 m/s 0.0 mm 14.1° 1011.4 hPa 5.3 m/s 1.9 mm 13.9° 1013.9 hPa 5.3 m/s 0.0 mm 12.8° 1013.1 hPa 4.5 m/s 0.0 mm 12.5° 1013.9 hPa 4.0 m/s
13:00 15.7° 1013.7 hPa 4.8 m/s 0.0 mm 17.1° 1011.3 hPa 4.7 m/s 1.9 mm 15.6° 1014.2 hPa 5.0 m/s 0.0 mm 14.6° 1013.5 hPa 4.6 m/s 0.0 mm 14.0° 1014.4 hPa 4.2 m/s
16:00 16.7° 1014.1 hPa 4.6 m/s 0.0 mm 18.3° 1012.1 hPa 3.7 m/s 1.9 mm 16.1° 1014.4 hPa 5.3 m/s 0.0 mm 16.2° 1013.7 hPa 3.7 m/s 0.0 mm 14.7° 1014.8 hPa 3.4 m/s
19:00 16.7° 1014.3 hPa 4.4 m/s 0.0 mm 17.7° 1012.3 hPa 2.6 m/s 2.0 mm 16.5° 1014.4 hPa 4.8 m/s 0.0 mm 15.9° 1014.4 hPa 3.6 m/s 0.0 mm 15.6° 1014.7 hPa 1.4 m/s
22:00 14.7° 1015.7 hPa 3.6 m/s 0.0 mm 13.7° 1013.6 hPa 3.3 m/s 2.2 mm 13.9° 1015.8 hPa 3.7 m/s 0.0 mm 15.4° 1015.9 hPa 2.9 m/s 0.0 mm 13.3° 1015.5 hPa 2.6 m/s
 05:49     21:23    Daglengte: 15:34 Maandag 02 Aug
01:00 12.3° 1016.1 hPa 3.3 m/s 0.0 mm 6.7° 1014.4 hPa 2.7 m/s 2.2 mm 12.3° 1015.7 hPa 2.3 m/s 0.0 mm 14.3° 1016.3 hPa 4.1 m/s 0.0 mm 10.3° 1016.0 hPa 2.4 m/s
04:00 11.2° 1015.9 hPa 2.2 m/s 0.0 mm 4.6° 1014.6 hPa 2.1 m/s 2.2 mm 10.6° 1015.6 hPa 1.5 m/s 0.0 mm 12.9° 1016.5 hPa 2.8 m/s 0.0 mm 7.1° 1016.3 hPa 1.4 m/s
07:00 11.6° 1015.8 hPa 2.2 m/s 0.0 mm 7.3° 1014.6 hPa 1.2 m/s 2.2 mm 10.3° 1015.6 hPa 1.2 m/s 0.0 mm 12.7° 1017.0 hPa 2.7 m/s 0.0 mm 8.1° 1016.1 hPa 1.3 m/s
10:00 13.2° 1015.8 hPa 2.6 m/s 0.0 mm 12.0° 1014.0 hPa 1.5 m/s 2.2 mm 13.3° 1015.5 hPa 1.0 m/s 0.0 mm 13.5° 1017.4 hPa 3.4 m/s 0.0 mm 11.8° 1015.5 hPa 2.4 m/s
13:00 15.7° 1015.6 hPa 2.1 m/s 0.0 mm 15.1° 1013.7 hPa 1.8 m/s 2.7 mm 16.8° 1015.0 hPa 2.3 m/s 0.0 mm 15.1° 1017.5 hPa 2.1 m/s 0.0 mm 11.7° 1015.5 hPa 2.1 m/s
16:00 17.5° 1014.5 hPa 2.2 m/s 0.0 mm 17.5° 1013.1 hPa 2.1 m/s 3.5 mm 18.3° 1014.6 hPa 1.5 m/s 0.0 mm 14.7° 1014.9 hPa 2.3 m/s
19:00 17.1° 1013.6 hPa 2.4 m/s 0.0 mm 15.6° 1012.6 hPa 3.3 m/s 3.7 mm 18.6° 1013.6 hPa 1.5 m/s 0.0 mm 14.9° 1014.3 hPa 2.9 m/s
22:00 14.8° 1014.1 hPa 1.9 m/s 0.0 mm 10.8° 1012.4 hPa 1.6 m/s 4.0 mm 15.5° 1014.3 hPa 1.8 m/s 0.0 mm 10.8° 1014.4 hPa 1.9 m/s
 05:51     21:21    Daglengte: 15:30 Dinsdag 03 Aug
01:00 13.2° 1014.0 hPa 2.5 m/s 0.0 mm 9.0° 1012.9 hPa 2.7 m/s 4.0 mm 13.9° 1014.1 hPa 1.0 m/s 0.0 mm 9.2° 1014.8 hPa 0.9 m/s
04:00 12.5° 1013.4 hPa 1.8 m/s 0.0 mm 9.8° 1012.1 hPa 1.6 m/s 4.0 mm 13.6° 1013.5 hPa 1.9 m/s 0.0 mm 8.6° 1014.1 hPa 2.0 m/s
07:00 11.9° 1013.2 hPa 1.7 m/s 0.5 mm 8.4° 1012.3 hPa 1.6 m/s 4.0 mm 13.6° 1013.2 hPa 1.7 m/s 0.1 mm 9.4° 1013.9 hPa 1.2 m/s
10:00 14.4° 1013.4 hPa 2.4 m/s 0.0 mm 14.2° 1012.3 hPa 2.3 m/s 4.0 mm 15.2° 1013.4 hPa 2.9 m/s 0.0 mm 14.5° 1013.7 hPa 1.6 m/s
13:00 17.9° 1012.5 hPa 2.6 m/s 0.0 mm 17.9° 1012.0 hPa 2.4 m/s 4.1 mm 18.0° 1012.5 hPa 3.5 m/s 0.0 mm 17.1° 1013.0 hPa 2.6 m/s
16:00 19.6° 1011.6 hPa 3.4 m/s 0.0 mm 18.4° 1011.5 hPa 3.3 m/s 4.1 mm 19.8° 1011.6 hPa 3.5 m/s 0.0 mm 17.2° 1012.7 hPa 1.9 m/s
19:00 18.4° 1011.4 hPa 3.1 m/s 0.0 mm 18.8° 1011.4 hPa 2.9 m/s 4.1 mm 18.4° 1011.4 hPa 3.2 m/s 0.1 mm 16.4° 1012.5 hPa 2.3 m/s
22:00 14.1° 1012.1 hPa 2.3 m/s 4.1 mm 14.1° 1012.1 hPa 2.3 m/s 4.1 mm 12.8° 1013.4 hPa 1.6 m/s
 05:53     21:19    Daglengte: 15:26 Woensdag 04 Aug
01:00 11.7° 1012.2 hPa 0.8 m/s 4.1 mm 11.7° 1012.2 hPa 0.8 m/s 4.1 mm 10.7° 1013.8 hPa 2.5 m/s
04:00 9.5° 1013.4 hPa 2.0 m/s 3.0 mm 9.5° 1013.4 hPa 2.0 m/s 3.0 mm
07:00 10.3° 1013.5 hPa 2.1 m/s 3.0 mm 10.3° 1013.5 hPa 2.1 m/s 3.0 mm
10:00 15.9° 1012.8 hPa 3.3 m/s 3.0 mm 15.9° 1012.8 hPa 3.3 m/s 3.0 mm
13:00 18.4° 1011.3 hPa 3.9 m/s 3.6 mm 18.4° 1011.3 hPa 3.9 m/s 3.6 mm
16:00 18.7° 1009.0 hPa 4.2 m/s 4.3 mm 18.7° 1009.0 hPa 4.2 m/s 4.3 mm
19:00 14.6° 1007.4 hPa 3.0 m/s 6.0 mm 14.6° 1007.4 hPa 3.0 m/s 6.0 mm
22:00 12.9° 1005.5 hPa 4.5 m/s 6.8 mm 12.9° 1005.5 hPa 4.5 m/s 6.8 mm
 05:54     21:17    Daglengte: 15:23 Donderdag 05 Aug
01:00 12.8° 1001.8 hPa 5.2 m/s 7.3 mm 12.8° 1001.8 hPa 5.2 m/s 7.3 mm
04:00 12.8° 997.1 hPa 6.0 m/s 9.4 mm 12.8° 997.1 hPa 6.0 m/s 9.4 mm
07:00 13.4° 993.9 hPa 5.2 m/s 11.0 mm 13.4° 993.9 hPa 5.2 m/s 11.0 mm
10:00 16.3° 992.1 hPa 4.4 m/s 11.2 mm 16.3° 992.1 hPa 4.4 m/s 11.2 mm
13:00 17.7° 991.9 hPa 2.8 m/s 12.5 mm 17.7° 991.9 hPa 2.8 m/s 12.5 mm
16:00 18.7° 992.4 hPa 1.5 m/s 16.5 mm 18.7° 992.4 hPa 1.5 m/s 16.5 mm
19:00 17.0° 994.0 hPa 2.4 m/s 19.6 mm 17.0° 994.0 hPa 2.4 m/s 19.6 mm
22:00 13.9° 996.3 hPa 3.2 m/s 21.8 mm 13.9° 996.3 hPa 3.2 m/s 21.8 mm
 05:56     21:15    Daglengte: 15:19 Vrijdag 06 Aug
01:00 13.3° 997.9 hPa 4.5 m/s 22.5 mm 13.3° 997.9 hPa 4.5 m/s 22.5 mm
04:00 13.6° 998.8 hPa 5.8 m/s 22.9 mm 13.6° 998.8 hPa 5.8 m/s 22.9 mm
07:00 12.8° 1000.1 hPa 5.9 m/s 23.1 mm 12.8° 1000.1 hPa 5.9 m/s 23.1 mm
10:00 14.8° 1001.2 hPa 6.7 m/s 23.1 mm 14.8° 1001.2 hPa 6.7 m/s 23.1 mm
13:00 17.8° 1001.7 hPa 7.4 m/s 23.2 mm 17.8° 1001.7 hPa 7.4 m/s 23.2 mm
16:00 18.6° 1001.8 hPa 7.2 m/s 23.5 mm 18.6° 1001.8 hPa 7.2 m/s 23.5 mm
19:00 15.3° 1003.2 hPa 5.6 m/s 24.6 mm 15.3° 1003.2 hPa 5.6 m/s 24.6 mm
22:00 10.9° 1004.5 hPa 3.2 m/s 24.6 mm 10.9° 1004.5 hPa 3.2 m/s 24.6 mm
 05:58     21:13    Daglengte: 15:15 Zaterdag 07 Aug
01:00 8.9° 1004.4 hPa 2.4 m/s 24.6 mm 8.9° 1004.4 hPa 2.4 m/s 24.6 mm
04:00 8.2° 1003.6 hPa 1.7 m/s 24.6 mm 8.2° 1003.6 hPa 1.7 m/s 24.6 mm
07:00 9.4° 1002.9 hPa 1.6 m/s 24.6 mm 9.4° 1002.9 hPa 1.6 m/s 24.6 mm
10:00 14.1° 1002.2 hPa 2.6 m/s 24.6 mm 14.1° 1002.2 hPa 2.6 m/s 24.6 mm
13:00 16.5° 1000.7 hPa 3.0 m/s 24.6 mm 16.5° 1000.7 hPa 3.0 m/s 24.6 mm
16:00 13.3° 999.6 hPa 1.8 m/s 26.2 mm 13.3° 999.6 hPa 1.8 m/s 26.2 mm
19:00 12.2° 998.2 hPa 4.1 m/s 28.6 mm 12.2° 998.2 hPa 4.1 m/s 28.6 mm
22:00 12.0° 997.1 hPa 5.6 m/s 34.1 mm 12.0° 997.1 hPa 5.6 m/s 34.1 mm
 06:00     21:11    Daglengte: 15:11 Zondag 08 Aug
01:00 11.7° 996.6 hPa 6.1 m/s 36.4 mm 11.7° 996.6 hPa 6.1 m/s 36.4 mm
07:00 11.6° 998.7 hPa 4.4 m/s 39.4 mm 11.6° 998.7 hPa 4.4 m/s 39.4 mm
13:00 18.8° 1002.2 hPa 4.4 m/s 39.6 mm 18.8° 1002.2 hPa 4.4 m/s 39.6 mm
19:00 16.7° 1008.3 hPa 6.7 m/s 40.3 mm 16.7° 1008.3 hPa 6.7 m/s 40.3 mm
 06:01     21:09    Daglengte: 15:08 Maandag 09 Aug
01:00 12.9° 1014.6 hPa 5.3 m/s 40.4 mm 12.9° 1014.6 hPa 5.3 m/s 40.4 mm
07:00 10.3° 1016.5 hPa 3.4 m/s 40.5 mm 10.3° 1016.5 hPa 3.4 m/s 40.5 mm
13:00 14.4° 1018.1 hPa 4.3 m/s 40.8 mm 14.4° 1018.1 hPa 4.3 m/s 40.8 mm
19:00 17.1° 1018.9 hPa 5.0 m/s 40.9 mm 17.1° 1018.9 hPa 5.0 m/s 40.9 mm
 06:03     21:07    Daglengte: 15:04 Dinsdag 10 Aug
01:00 15.0° 1020.5 hPa 4.1 m/s 40.9 mm 15.0° 1020.5 hPa 4.1 m/s 40.9 mm
07:00 15.4° 1019.7 hPa 4.1 m/s 40.9 mm 15.4° 1019.7 hPa 4.1 m/s 40.9 mm
13:00 19.0° 1019.4 hPa 6.2 m/s 41.2 mm 19.0° 1019.4 hPa 6.2 m/s 41.2 mm
19:00 17.0° 1018.5 hPa 2.9 m/s 1.2 mm
 06:05     21:05    Daglengte: 15:00 Woensdag 11 Aug
01:00 11.9° 1019.5 hPa 1.9 m/s 0.2 mm
07:00 11.5° 1019.3 hPa 1.9 m/s 0.1 mm
13:00 17.9° 1019.8 hPa 2.8 m/s 0.4 mm
19:00 17.5° 1019.6 hPa 2.2 m/s 0.8 mm
 06:06     21:03    Daglengte: 14:57 Donderdag 12 Aug
01:00 12.5° 1019.7 hPa 1.6 m/s 0.4 mm
07:00 12.4° 1018.3 hPa 2.1 m/s 0.2 mm
13:00 18.3° 1018.1 hPa 3.3 m/s 0.8 mm
19:00 17.8° 1017.6 hPa 2.7 m/s 0.8 mm
 06:08     21:01    Daglengte: 14:53 Vrijdag 13 Aug
01:00 13.0° 1017.8 hPa 2.2 m/s 0.4 mm
07:00 12.5° 1017.2 hPa 2.2 m/s 0.2 mm
13:00 18.4° 1017.8 hPa 3.2 m/s 0.6 mm
19:00 17.7° 1017.7 hPa 2.7 m/s 0.9 mm
 06:10     20:59    Daglengte: 14:49 Zaterdag 14 Aug
01:00 12.7° 1018.6 hPa 2.0 m/s 0.2 mm
07:00 11.9° 1018.4 hPa 1.6 m/s 0.2 mm
13:00 18.4° 1018.4 hPa 2.5 m/s 0.4 mm
19:00 17.7° 1017.8 hPa 2.3 m/s 1.5 mm
 06:12     20:57    Daglengte: 14:45 Zondag 15 Aug
01:00 12.3° 1018.2 hPa 1.7 m/s 0.6 mm
07:00 11.8° 1017.7 hPa 1.7 m/s 0.5 mm
13:00 18.3° 1017.9 hPa 2.9 m/s 0.6 mm
19:00 18.0° 1017.0 hPa 2.7 m/s 0.9 mm
FMI Hirlam - 7.5 km EWN WRFDA - 12 km DWD ICON - 7 km GFS - 25 km Basiskaart






























































Updatetijd (Europe/Amsterdam) Resolutie Lengte Stap
FMI Hirlam 19:00, 01:00, 07:00, 13:00 7.5 km 49h 1h
EWN WRFDA 22:15, 04:15, 10:15, 16:15 12 km 73h 1h
DWD ICON 18:15, 00:15, 06:15, 12:15 7 km 75h 1h
GFS 20:15, 02:15, 08:15, 14:15 25 km 237h 3h
30+ mm
25-30 mm
20-25 mm
15-20 mm
10-15 mm
6-10 mm
4-6 mm
2-4 mm
1-2 mm
0.5-1 mm
0.2-0.5 mm
0.1-0.2 mm
30+ mm
25-30 mm
20-25 mm
15-20 mm
10-15 mm
6-10 mm
4-6 mm
2-4 mm
1-2 mm
0.5-1 mm
0.2-0.5 mm
0.1-0.2 mm
Sneeuwval
Natte sneeuw
Hagel
Vorst
30+ mm
25-30 mm
20-25 mm
15-20 mm
10-15 mm
6-10 mm
4-6 mm
2-4 mm
1-2 mm
0.5-1 mm
0.2-0.5 mm
0.1-0.2 mm
Sneeuwval
Natte sneeuw
Hagel
Vorst
Onweer
50 mm
40 mm
30 mm
26 mm
22 mm
18 mm
14 mm
10 mm
9 mm
8 mm
7 mm
6 mm
5 mm
4.5 mm
4 mm
3.5 mm
3 mm
2.5 mm
2 mm
1.5 mm
1 mm
0.8 mm
0.6 mm
0.4 mm
0.2 mm
0.05 mm
35°
30°
25°
20°
15°
10°
-5°
-10°
-15°
-20°
-25°
-30°
-35°
33> m/s
29 m/s
25 m/s
21 m/s
17 m/s
14 m/s
11 m/s
8 m/s
5 m/s
3 m/s
0 m/s
2600 J/kg
2400 J/kg
2200 J/kg
2000 J/kg
1800 J/kg
1600 J/kg
1400 J/kg
1200 J/kg
1000 J/kg
800 J/kg
600 J/kg
400 J/kg
200 J/kg
70 dBZ
65 dBZ
60 dBZ
55 dBZ
50 dBZ
45 dBZ
40 dBZ
35 dBZ
30 dBZ
25 dBZ
20 dBZ
15 dBZ
10 dBZ
5 dBZ
-1 K
-2 K
-3 K
-4 K
-5 K
-6 K
-7 K
-8 K
-9 K
950 m²/s²
900 m²/s²
850 m²/s²
800 m²/s²
750 m²/s²
700 m²/s²
650 m²/s²
600 m²/s²
550 m²/s²
500 m²/s²
450 m²/s²
400 m²/s²
350 m²/s²
300 m²/s²
250 m²/s²
200 m²/s²
150 m²/s²
100 m²/s²
46 m/s
44 m/s
42 m/s
40 m/s
38 m/s
36 m/s
34 m/s
32 m/s
30 m/s
28 m/s
26 m/s
24 m/s
22 m/s
20 m/s
16 m/s
12 m/s
8 m/s
4 m/s
30 m/s
28 m/s
26 m/s
24 m/s
22 m/s
20 m/s
18 m/s
16 m/s
14 m/s
12 m/s
10 m/s
8 m/s
6 m/s
4 m/s
2 m/s
3.0
2.8
2.6
2.4
2.2
2.0
1.8
1.6
1.4
1.2
1.0
0.8
0.6
0.4
0.2
15
14
13
12
11
10
9
8
7
6
5
4
3
2
1
90%
80%
70%
60%
50%
40%
30%
20%
10%
42
40
38
36
34
32
30
28
26
24
22
20
18
16
14
12
90+ cm
80-90 cm
70-80 cm
60-70 cm
50-60 cm
40-50 cm
30-40 cm
20-30 cm
10-20 cm
1-10 cm
Sneeuwval
Natte sneeuw
Regen
>120 mm
115 mm
110 mm
105 mm
100 mm
95 mm
90 mm
85 mm
80 mm
75 mm
70 mm
65 mm
60 mm
55 mm
50 mm
45 mm
45 mm
40 mm
35 mm
30 mm
25 mm
20 mm
15 mm
10 mm
5 mm
0.1 mm
960 hPa
880 hPa
800 hPa
720 hPa
640 hPa
560 hPa
584 gpdm
568 gpdm
552 gpdm
536 gpdm
520 gpdm
504 gpdm
488 gpdm
Extreem zwaar Noodweer Kans op onweer
15% 15% 5% 50% 15%

Dag




Kaart






35°
30°
25°
20°
15°
10°
-5°
-10°
-15°
-20°
-25°
-30°
-35°
33> m/s
29 m/s
25 m/s
21 m/s
17 m/s
14 m/s
11 m/s
8 m/s
5 m/s
3 m/s
0 m/s
Extreem zwaar Noodweer Kans op onweer
15% 15% 5% 50% 15%
>120 mm
115 mm
110 mm
105 mm
100 mm
95 mm
90 mm
85 mm
80 mm
75 mm
70 mm
65 mm
60 mm
55 mm
50 mm
45 mm
45 mm
40 mm
35 mm
30 mm
25 mm
20 mm
15 mm
10 mm
5 mm
0.1 mm
Onweer risico kaarten - De groene en gele kleur geeft de kans op onweer aan binnen 40 km van een punt. Oranje, rood en violet hebben hetzelfde niveau zoals je het ziet op estofex.org waaronder ook de kans op hagel en supercells.

dBZ - dBZ staat voor decibel ten opzichte van Z.

Cape - Convective available potential energy (CAPE), is de totale hoeveelheid energie die een luchtpakketje nodig heeft om zover mogelijk te stijgen in de atmosfeer.

K Index - K-Index wordt berekend door de Vertical Totals (VT) en het verschil tussen de 850 hPa temperatuur en de 700 hPa dauwpuntsdepressie (Tdd 700) bij elkaar op te tellen.

TT Index - Convectie index wordt gebruikt voor het voorspellen van zware buien of onweer.

WRF - The Weather Research and Forecasting (WRF) is een volgende generatie mesoscale numeriek weersvoorspelling systeem ontworpen om zowel de operationele planning als het atmosferisch onderzoek te dienen. WRF is a cooperatie tussen het National Center for Atmospheric Research (NCAR), National Centers for Environmental Prediction (NCEP), Forecast Systems Laboratory (FSL), Air Force Weather Agency (AFWA), Naval Research Laboratory, University of Oklahoma, en de Federal Aviation Administration (FAA). Deze software draait op onze serve